Time,TemperatureF,DewpointF,PressureIn,WindDirection,WindDirectionDegrees,WindSpeedMPH,WindSpeedGustMPH,Humidity,HourlyPrecipIn,Conditions,Clouds,dailyrainin,SoftwareType,DateUTC
2013-09-16 00:01:00,55.5,51.4,30.02,SW,232,0.0,0.0,86,0.00,,,0.00,WeatherCatV1.10B1784,2013-09-16 04:01:00,
2013-09-16 00:06:00,55.8,51.7,30.02,SW,232,0.0,0.0,86,0.00,,,0.00,WeatherCatV1.10B1784,2013-09-16 04:06:00,
2013-09-16 00:11:00,56.2,51.7,30.02,SW,232,3.0,3.0,85,0.00,,,0.00,WeatherCatV1.10B1784,2013-09-16 04:11:00,
2013-09-16 00:16:00,56.3,51.8,30.02,SW,232,0.0,0.0,85,0.00,,,0.00,WeatherCatV1.10B1784,2013-09-16 04:16:00,
2013-09-16 00:21:00,56.3,52.2,30.02,SW,232,0.0,0.0,86,0.00,,,0.00,WeatherCatV1.10B1784,2013-09-16 04:21:00,
2013-09-16 00:26:00,56.2,51.7,30.02,SW,232,0.0,0.0,85,0.00,,,0.00,WeatherCatV1.10B1784,2013-09-16 04:26:00,
2013-09-16 00:31:00,56.3,51.5,30.02,SW,233,0.0,5.0,84,0.00,,,0.00,WeatherCatV1.10B1784,2013-09-16 04:31:00,
2013-09-16 00:36:00,56.7,51.9,30.02,SW,232,0.0,4.0,84,0.00,,,0.00,WeatherCatV1.10B1784,2013-09-16 04:36:00,
2013-09-16 00:41:00,57.1,51.3,30.02,SW,231,0.0,1.0,81,0.00,,,0.00,WeatherCatV1.10B1784,2013-09-16 04:41:00,
2013-09-16 00:46:00,57.3,51.8,30.02,SW,232,0.0,0.0,82,0.00,,,0.00,WeatherCatV1.10B1784,2013-09-16 04:46:00,
2013-09-16 00:51:00,57.4,51.3,30.02,SW,233,0.0,5.0,80,0.00,,,0.00,WeatherCatV1.10B1784,2013-09-16 04:51:00,
2013-09-16 00:56:00,57.7,51.2,30.02,SW,233,0.0,5.0,79,0.00,,,0.00,WeatherCatV1.10B1784,2013-09-16 04:56:00,
2013-09-16 01:01:00,58.0,50.8,30.01,SW,233,0.0,1.0,77,0.00,,,0.00,WeatherCatV1.10B1784,2013-09-16 05:01:00,
2013-09-16 01:06:00,58.1,50.6,30.01,SW,233,5.0,7.0,76,0.00,,,0.00,WeatherCatV1.10B1784,2013-09-16 05:06:00,
2013-09-16 01:11:00,58.2,51.0,30.01,SW,225,1.0,6.0,77,0.00,,,0.00,WeatherCatV1.10B1784,2013-09-16 05:11:00,
2013-09-16 01:16:00,58.2,50.7,30.01,SW,223,0.0,4.0,76,0.00,,,0.00,WeatherCatV1.10B1784,2013-09-16 05:16:00,
2013-09-16 01:21:00,58.3,50.8,30.01,SW,227,0.0,4.0,76,0.00,,,0.00,WeatherCatV1.10B1784,2013-09-16 05:21:00,
2013-09-16 01:26:00,58.3,50.8,30.01,SW,232,0.0,4.0,76,0.00,,,0.00,WeatherCatV1.10B1784,2013-09-16 05:26:00,
2013-09-16 01:31:00,58.3,50.8,30.01,SW,232,0.0,0.0,76,0.00,,,0.00,WeatherCatV1.10B1784,2013-09-16 05:31:00,
2013-09-16 01:36:00,58.3,50.8,30.01,SW,231,2.0,2.0,76,0.00,,,0.00,WeatherCatV1.10B1784,2013-09-16 05:36:00,
2013-09-16 01:41:00,58.3,50.8,30.01,SW,231,0.0,4.0,76,0.00,,,0.00,WeatherCatV1.10B1784,2013-09-16 05:41:00,
2013-09-16 01:46:00,58.2,50.7,30.00,SW,231,0.0,0.0,76,0.00,,,0.00,WeatherCatV1.10B1784,2013-09-16 05:46:00,
2013-09-16 01:51:00,58.1,50.9,30.00,SW,231,0.0,0.0,77,0.00,,,0.00,WeatherCatV1.10B1784,2013-09-16 05:51:00,
2013-09-16 01:56:00,58.0,51.2,30.00,SW,231,0.0,0.0,78,0.00,,,0.00,WeatherCatV1.10B1784,2013-09-16 05:56:00,
2013-09-16 02:01:00,57.8,51.0,30.00,SW,231,0.0,0.0,78,0.00,,,0.00,WeatherCatV1.10B1784,2013-09-16 06:01:00,
2013-09-16 02:06:00,57.6,51.1,30.00,SW,231,0.0,0.0,79,0.00,,,0.00,WeatherCatV1.10B1784,2013-09-16 06:06:00,
2013-09-16 02:11:00,57.4,51.3,29.99,SW,231,0.0,0.0,80,0.00,,,0.00,WeatherCatV1.10B1784,2013-09-16 06:11:00,
2013-09-16 02:16:00,57.2,51.4,30.00,SW,231,0.0,0.0,81,0.00,,,0.00,WeatherCatV1.10B1784,2013-09-16 06:16:00,
2013-09-16 02:21:00,57.0,50.9,29.99,SW,231,0.0,0.0,80,0.00,,,0.00,WeatherCatV1.10B1784,2013-09-16 06:21:00,
2013-09-16 02:26:00,56.9,50.8,29.99,SW,231,0.0,0.0,80,0.00,,,0.00,WeatherCatV1.10B1784,2013-09-16 06:26:00,
2013-09-16 02:31:00,56.9,51.5,29.99,SW,231,0.0,0.0,82,0.00,,,0.00,WeatherCatV1.10B1784,2013-09-16 06:31:00,
2013-09-16 02:36:00,56.8,51.4,29.99,SW,231,0.0,0.0,82,0.00,,,0.00,WeatherCatV1.10B1784,2013-09-16 06:36:00,
2013-09-16 02:41:00,56.7,51.6,29.99,SW,231,0.0,0.0,83,0.00,,,0.00,WeatherCatV1.10B1784,2013-09-16 06:41:00,
2013-09-16 02:46:00,56.6,51.8,29.99,SW,231,0.0,0.0,84,0.00,,,0.00,WeatherCatV1.10B1784,2013-09-16 06:46:00,
2013-09-16 02:51:00,56.4,51.9,29.99,SW,231,0.0,0.0,85,0.00,,,0.00,WeatherCatV1.10B1784,2013-09-16 06:51:00,
2013-09-16 02:56:00,56.2,52.1,29.99,SW,231,0.0,0.0,86,0.00,,,0.00,WeatherCatV1.10B1784,2013-09-16 06:56:00,
2013-09-16 03:01:00,56.0,51.9,29.99,SW,231,0.0,0.0,86,0.00,,,0.00,WeatherCatV1.10B1784,2013-09-16 07:01:00,
2013-09-16 03:06:00,55.9,52.1,29.99,SW,231,0.0,0.0,87,0.00,,,0.00,WeatherCatV1.10B1784,2013-09-16 07:06:00,
2013-09-16 03:11:00,55.8,51.7,29.99,SW,231,0.0,0.0,86,0.00,,,0.00,WeatherCatV1.10B1784,2013-09-16 07:11:00,
2013-09-16 03:16:00,55.7,51.6,29.98,SW,231,0.0,0.0,86,0.00,,,0.00,WeatherCatV1.10B1784,2013-09-16 07:16:00,
2013-09-16 03:21:00,55.7,51.3,29.99,SW,231,0.0,0.0,85,0.00,,,0.00,WeatherCatV1.10B1784,2013-09-16 07:21:00,
2013-09-16 03:26:00,55.8,51.4,30.00,SW,231,0.0,0.0,85,0.00,,,0.00,WeatherCatV1.10B1784,2013-09-16 07:26:00,
2013-09-16 03:31:00,55.7,50.9,29.99,SW,231,0.0,0.0,84,0.00,,,0.00,WeatherCatV1.10B1784,2013-09-16 07:31:00,
2013-09-16 03:36:00,55.8,51.0,30.00,SW,231,0.0,0.0,84,0.00,,,0.00,WeatherCatV1.10B1784,2013-09-16 07:36:00,
2013-09-16 03:41:00,55.8,51.0,30.00,SW,231,0.0,0.0,84,0.00,,,0.00,WeatherCatV1.10B1784,2013-09-16 07:41:00,
2013-09-16 03:46:00,55.8,51.0,29.99,SW,231,0.0,0.0,84,0.00,,,0.00,WeatherCatV1.10B1784,2013-09-16 07:46:00,
2013-09-16 03:51:00,55.9,51.5,29.99,SW,231,0.0,0.0,85,0.00,,,0.00,WeatherCatV1.10B1784,2013-09-16 07:51:00,
2013-09-16 03:56:00,55.8,51.4,29.99,SW,231,0.0,0.0,85,0.00,,,0.00,WeatherCatV1.10B1784,2013-09-16 07:56:00,
2013-09-16 04:01:00,55.8,51.4,29.99,SW,231,0.0,0.0,85,0.00,,,0.00,WeatherCatV1.10B1784,2013-09-16 08:01:00,
2013-09-16 04:06:00,55.8,51.7,29.99,SW,231,0.0,0.0,86,0.00,,,0.00,WeatherCatV1.10B1784,2013-09-16 08:06:00,
2013-09-16 04:11:00,55.7,51.6,29.98,SW,231,0.0,0.0,86,0.00,,,0.00,WeatherCatV1.10B1784,2013-09-16 08:11:00,
2013-09-16 04:16:00,55.6,51.5,29.98,SW,231,0.0,0.0,86,0.00,,,0.00,WeatherCatV1.10B1784,2013-09-16 08:16:00,
2013-09-16 04:21:00,55.5,51.7,29.98,SW,231,1.0,1.0,87,0.00,,,0.00,WeatherCatV1.10B1784,2013-09-16 08:21:00,
2013-09-16 04:26:00,55.3,51.2,29.98,SW,230,0.0,3.0,86,0.00,,,0.00,WeatherCatV1.10B1784,2013-09-16 08:26:00,
2013-09-16 04:31:00,55.3,51.2,29.98,SW,229,0.0,4.0,86,0.00,,,0.00,WeatherCatV1.10B1784,2013-09-16 08:31:00,
2013-09-16 04:36:00,55.3,51.2,29.98,SW,228,0.0,0.0,86,0.00,,,0.00,WeatherCatV1.10B1784,2013-09-16 08:36:00,
2013-09-16 04:41:00,55.2,51.1,29.98,SW,228,0.0,2.0,86,0.00,,,0.00,WeatherCatV1.10B1784,2013-09-16 08:41:00,
2013-09-16 04:46:00,55.2,51.1,29.98,SW,228,0.0,0.0,86,0.00,,,0.00,WeatherCatV1.10B1784,2013-09-16 08:46:00,
2013-09-16 04:51:00,55.1,51.3,29.98,SW,228,0.0,0.0,87,0.00,,,0.00,WeatherCatV1.10B1784,2013-09-16 08:51:00,
2013-09-16 04:56:00,54.9,51.1,29.99,SW,228,0.0,0.0,87,0.00,,,0.00,WeatherCatV1.10B1784,2013-09-16 08:56:00,
2013-09-16 05:01:00,54.8,51.0,29.99,SW,228,0.0,0.0,87,0.00,,,0.00,WeatherCatV1.10B1784,2013-09-16 09:01:00,
2013-09-16 05:06:00,54.7,51.2,29.99,SW,228,0.0,0.0,88,0.00,,,0.00,WeatherCatV1.10B1784,2013-09-16 09:06:00,
2013-09-16 05:11:00,54.6,51.1,29.99,SW,228,0.0,0.0,88,0.00,,,0.00,WeatherCatV1.10B1784,2013-09-16 09:11:00,
2013-09-16 05:16:00,54.6,51.1,29.98,SW,228,0.0,0.0,88,0.00,,,0.00,WeatherCatV1.10B1784,2013-09-16 09:16:00,
2013-09-16 05:21:00,54.5,51.0,29.99,SW,228,0.0,0.0,88,0.00,,,0.00,WeatherCatV1.10B1784,2013-09-16 09:21:00,
2013-09-16 05:26:00,54.5,51.0,29.99,SW,228,0.0,0.0,88,0.00,,,0.00,WeatherCatV1.10B1784,2013-09-16 09:26:00,
2013-09-16 05:31:00,54.5,50.7,29.99,SW,228,0.0,0.0,87,0.00,,,0.00,WeatherCatV1.10B1784,2013-09-16 09:31:00,
2013-09-16 05:36:00,54.8,50.4,29.99,SW,228,0.0,2.0,85,0.00,,,0.00,WeatherCatV1.10B1784,2013-09-16 09:36:00,
2013-09-16 05:41:00,55.3,50.2,29.99,SW,228,0.0,0.0,83,0.00,,,0.00,WeatherCatV1.10B1784,2013-09-16 09:41:00,
2013-09-16 05:46:00,55.9,50.2,29.99,SW,228,0.0,1.0,81,0.00,,,0.00,WeatherCatV1.10B1784,2013-09-16 09:46:00,
2013-09-16 05:51:00,56.4,50.0,30.00,SW,228,0.0,1.0,79,0.00,,,0.00,WeatherCatV1.10B1784,2013-09-16 09:51:00,
2013-09-16 05:56:00,57.2,50.1,29.99,SW,228,0.0,3.0,77,0.00,,,0.00,WeatherCatV1.10B1784,2013-09-16 09:56:00,
2013-09-16 06:01:00,57.5,51.4,29.98,SW,228,0.0,0.0,80,0.00,,,0.00,WeatherCatV1.10B1784,2013-09-16 10:01:00,
2013-09-16 06:06:00,57.5,51.0,29.97,SW,228,0.0,0.0,79,0.00,,,0.00,WeatherCatV1.10B1784,2013-09-16 10:06:00,
2013-09-16 06:11:00,57.7,50.2,29.99,SW,230,1.0,4.0,76,0.00,,,0.00,WeatherCatV1.10B1784,2013-09-16 10:11:00,
2013-09-16 06:16:00,58.1,50.2,30.00,SW,230,0.0,0.0,75,0.00,,,0.00,WeatherCatV1.10B1784,2013-09-16 10:16:00,
2013-09-16 06:21:00,58.2,50.3,30.00,SW,230,0.0,0.0,75,0.00,,,0.00,WeatherCatV1.10B1784,2013-09-16 10:21:00,
2013-09-16 06:26:00,58.2,50.7,30.00,SW,230,0.0,1.0,76,0.00,,,0.00,WeatherCatV1.10B1784,2013-09-16 10:26:00,
2013-09-16 06:31:00,58.3,50.4,29.99,SW,233,0.0,0.0,75,0.00,,,0.00,WeatherCatV1.10B1784,2013-09-16 10:31:00,
2013-09-16 06:36:00,58.4,50.5,30.00,SW,234,0.0,1.0,75,0.00,,,0.00,WeatherCatV1.10B1784,2013-09-16 10:36:00,
2013-09-16 06:41:00,58.3,50.8,29.99,SW,234,0.0,0.0,76,0.00,,,0.00,WeatherCatV1.10B1784,2013-09-16 10:41:00,
2013-09-16 06:46:00,58.3,51.5,29.99,SW,233,0.0,0.0,78,0.00,,,0.00,WeatherCatV1.10B1784,2013-09-16 10:46:00,
2013-09-16 06:51:00,58.1,50.9,30.00,SW,234,0.0,0.0,77,0.00,,,0.00,WeatherCatV1.10B1784,2013-09-16 10:51:00,
2013-09-16 06:56:00,58.0,51.2,29.99,SW,233,0.0,3.0,78,0.00,,,0.00,WeatherCatV1.10B1784,2013-09-16 10:56:00,
2013-09-16 07:01:00,57.8,51.3,30.00,SW,233,0.0,0.0,79,0.00,,,0.00,WeatherCatV1.10B1784,2013-09-16 11:01:00,
2013-09-16 07:06:00,57.9,50.7,30.00,WSW,240,0.0,1.0,77,0.00,,,0.00,WeatherCatV1.10B1784,2013-09-16 11:06:00,
2013-09-16 07:11:00,58.0,50.8,30.01,WSW,246,3.0,7.0,77,0.00,,,0.00,WeatherCatV1.10B1784,2013-09-16 11:11:00,
2013-09-16 07:16:00,58.2,51.0,30.00,WSW,252,0.0,7.0,77,0.00,,,0.00,WeatherCatV1.10B1784,2013-09-16 11:16:00,
2013-09-16 07:21:00,58.2,51.0,30.01,West,277,0.0,3.0,77,0.00,,,0.00,WeatherCatV1.10B1784,2013-09-16 11:21:00,
2013-09-16 07:26:00,58.1,51.3,30.01,West,272,0.0,1.0,78,0.00,,,0.00,WeatherCatV1.10B1784,2013-09-16 11:26:00,
2013-09-16 07:31:00,58.1,51.3,30.01,NW,306,1.0,4.0,78,0.00,,,0.00,WeatherCatV1.10B1784,2013-09-16 11:31:00,
2013-09-16 07:36:00,58.0,51.2,30.01,WNW,292,0.0,6.0,78,0.00,,,0.00,WeatherCatV1.10B1784,2013-09-16 11:36:00,
2013-09-16 07:41:00,57.8,51.0,30.01,WNW,292,1.0,4.0,78,0.00,,,0.00,WeatherCatV1.10B1784,2013-09-16 11:41:00,
2013-09-16 07:46:00,57.9,50.7,30.01,West,277,0.0,5.0,77,0.00,,,0.00,WeatherCatV1.10B1784,2013-09-16 11:46:00,
2013-09-16 07:51:00,57.9,50.7,30.01,WNW,298,0.0,0.0,77,0.00,,,0.00,WeatherCatV1.10B1784,2013-09-16 11:51:00,
2013-09-16 07:56:00,57.8,51.0,30.01,WNW,298,0.0,1.0,78,0.00,,,0.00,WeatherCatV1.10B1784,2013-09-16 11:56:00,
2013-09-16 08:01:00,57.6,51.1,30.01,WNW,290,0.0,6.0,79,0.00,,,0.00,WeatherCatV1.10B1784,2013-09-16 12:01:00,
2013-09-16 08:06:00,57.5,51.4,30.01,WNW,290,0.0,1.0,80,0.00,,,0.00,WeatherCatV1.10B1784,2013-09-16 12:06:00,
2013-09-16 08:11:00,57.4,51.6,30.01,WNW,290,0.0,2.0,81,0.00,,,0.00,WeatherCatV1.10B1784,2013-09-16 12:11:00,
2013-09-16 08:16:00,57.4,50.9,30.01,NNW,338,0.0,8.0,79,0.00,,,0.00,WeatherCatV1.10B1784,2013-09-16 12:16:00,
2013-09-16 08:21:00,57.4,51.3,30.01,NW,315,0.0,5.0,80,0.00,,,0.00,WeatherCatV1.10B1784,2013-09-16 12:21:00,
2013-09-16 08:26:00,57.5,51.0,30.02,SW,230,2.0,5.0,79,0.00,,,0.00,WeatherCatV1.10B1784,2013-09-16 12:26:00,
2013-09-16 08:31:00,57.5,51.4,30.02,WNW,288,0.0,4.0,80,0.00,,,0.00,WeatherCatV1.10B1784,2013-09-16 12:31:00,
2013-09-16 08:36:00,57.3,51.8,30.02,WNW,290,0.0,1.0,82,0.00,,,0.00,WeatherCatV1.10B1784,2013-09-16 12:36:00,
2013-09-16 08:41:00,56.9,51.5,30.02,West,271,0.0,1.0,82,0.00,,,0.00,WeatherCatV1.10B1784,2013-09-16 12:41:00,
2013-09-16 08:46:00,56.6,51.5,30.02,WNW,286,0.0,1.0,83,0.00,,,0.00,WeatherCatV1.10B1784,2013-09-16 12:46:00,
2013-09-16 08:51:00,56.4,51.6,30.02,NNE,14,0.0,0.0,84,0.00,,,0.00,WeatherCatV1.10B1784,2013-09-16 12:51:00,
2013-09-16 08:56:00,56.3,51.8,30.02,NNE,14,0.0,0.0,85,0.00,,,0.00,WeatherCatV1.10B1784,2013-09-16 12:56:00,
2013-09-16 09:01:00,56.2,51.7,30.02,North,11,0.0,1.0,85,0.00,,,0.00,WeatherCatV1.10B1784,2013-09-16 13:01:00,
2013-09-16 09:06:00,56.2,51.7,30.02,North,352,0.0,5.0,85,0.00,,,0.00,WeatherCatV1.10B1784,2013-09-16 13:06:00,
2013-09-16 09:11:00,56.2,51.7,30.02,NW,324,0.0,5.0,85,0.00,,,0.00,WeatherCatV1.10B1784,2013-09-16 13:11:00,
2013-09-16 09:16:00,56.1,52.0,30.03,NW,322,0.0,3.0,86,0.00,,,0.00,WeatherCatV1.10B1784,2013-09-16 13:16:00,
2013-09-16 09:21:00,56.1,52.0,30.02,NW,321,0.0,0.0,86,0.00,,,0.00,WeatherCatV1.10B1784,2013-09-16 13:21:00,
2013-09-16 09:26:00,56.1,52.0,30.02,NW,321,0.0,2.0,86,0.00,,,0.00,WeatherCatV1.10B1784,2013-09-16 13:26:00,
2013-09-16 09:31:00,56.3,52.2,30.02,NW,321,0.0,0.0,86,0.00,,,0.00,WeatherCatV1.10B1784,2013-09-16 13:31:00,
2013-09-16 09:36:00,56.3,51.8,30.01,West,275,0.0,2.0,85,0.00,,,0.00,WeatherCatV1.10B1784,2013-09-16 13:36:00,
2013-09-16 09:41:00,56.4,52.3,30.01,West,275,2.0,3.0,86,0.00,,,0.00,WeatherCatV1.10B1784,2013-09-16 13:41:00,
2013-09-16 09:46:00,56.6,51.8,30.01,WSW,249,0.0,4.0,84,0.00,,,0.00,WeatherCatV1.10B1784,2013-09-16 13:46:00,
2013-09-16 09:51:00,56.9,52.1,30.01,WSW,248,0.0,1.0,84,0.00,,,0.00,WeatherCatV1.10B1784,2013-09-16 13:51:00,
2013-09-16 09:56:00,57.4,53.2,30.01,WSW,249,0.0,1.0,86,0.00,,,0.00,WeatherCatV1.10B1784,2013-09-16 13:56:00,
2013-09-16 10:01:00,57.7,52.2,30.01,WSW,245,1.0,4.0,82,0.00,,,0.00,WeatherCatV1.10B1784,2013-09-16 14:01:00,
2013-09-16 10:06:00,57.9,51.8,30.01,WSW,244,0.0,6.0,80,0.00,,,0.00,WeatherCatV1.10B1784,2013-09-16 14:06:00,
2013-09-16 10:11:00,58.0,52.2,30.01,WSW,244,3.0,4.0,81,0.00,,,0.00,WeatherCatV1.10B1784,2013-09-16 14:11:00,
2013-09-16 10:16:00,57.9,52.1,30.01,WSW,242,0.0,2.0,81,0.00,,,0.00,WeatherCatV1.10B1784,2013-09-16 14:16:00,
2013-09-16 10:21:00,57.9,52.4,30.01,WSW,243,0.0,4.0,82,0.00,,,0.00,WeatherCatV1.10B1784,2013-09-16 14:21:00,
2013-09-16 10:26:00,57.9,52.8,30.01,WSW,243,0.0,0.0,83,0.00,,,0.00,WeatherCatV1.10B1784,2013-09-16 14:26:00,
2013-09-16 10:32:00,57.9,52.8,30.01,WSW,243,0.0,4.0,83,0.00,,,0.00,WeatherCatV1.10B1784,2013-09-16 14:32:00,
2013-09-16 10:37:00,57.8,53.0,30.01,WSW,243,0.0,0.0,84,0.00,,,0.00,WeatherCatV1.10B1784,2013-09-16 14:37:00,
2013-09-16 10:42:00,57.7,52.9,30.02,WSW,243,0.0,1.0,84,0.00,,,0.00,WeatherCatV1.10B1784,2013-09-16 14:42:00,
2013-09-16 10:47:00,57.8,53.0,30.02,WSW,243,0.0,0.0,84,0.00,,,0.00,WeatherCatV1.10B1784,2013-09-16 14:47:00,
2013-09-16 10:52:00,57.8,52.7,30.02,WSW,243,0.0,1.0,83,0.00,,,0.00,WeatherCatV1.10B1784,2013-09-16 14:52:00,
2013-09-16 10:57:00,57.9,52.4,30.01,WSW,242,3.0,4.0,82,0.00,,,0.00,WeatherCatV1.10B1784,2013-09-16 14:57:00,
2013-09-16 11:02:00,58.1,53.3,30.02,WSW,242,0.0,0.0,84,0.00,,,0.00,WeatherCatV1.10B1784,2013-09-16 15:02:00,
2013-09-16 11:07:00,58.3,52.5,30.02,WSW,242,0.0,0.0,81,0.00,,,0.00,WeatherCatV1.10B1784,2013-09-16 15:07:00,
2013-09-16 11:12:00,58.6,52.4,30.01,WSW,242,0.0,1.0,80,0.00,,,0.00,WeatherCatV1.10B1784,2013-09-16 15:12:00,
2013-09-16 11:17:00,58.8,52.3,30.01,WSW,242,0.0,4.0,79,0.00,,,0.00,WeatherCatV1.10B1784,2013-09-16 15:17:00,
2013-09-16 11:22:00,58.9,52.7,30.01,WSW,242,0.0,5.0,80,0.00,,,0.00,WeatherCatV1.10B1784,2013-09-16 15:22:00,
2013-09-16 11:27:00,58.9,52.4,30.02,WSW,242,0.0,0.0,79,0.00,,,0.00,WeatherCatV1.10B1784,2013-09-16 15:27:00,
2013-09-16 11:32:00,59.1,53.3,30.01,WSW,242,0.0,0.0,81,0.00,,,0.00,WeatherCatV1.10B1784,2013-09-16 15:32:00,
2013-09-16 11:37:00,59.2,53.0,30.02,WSW,242,0.0,1.0,80,0.00,,,0.00,WeatherCatV1.10B1784,2013-09-16 15:37:00,
2013-09-16 11:42:00,59.4,52.9,30.02,WSW,242,1.0,3.0,79,0.00,,,0.00,WeatherCatV1.10B1784,2013-09-16 15:42:00,
2013-09-16 11:47:00,59.8,54.6,30.02,WSW,252,2.0,7.0,83,0.00,,,0.00,WeatherCatV1.10B1784,2013-09-16 15:47:00,
2013-09-16 11:52:00,60.2,54.0,30.02,WSW,246,0.0,0.0,80,0.00,,,0.00,WeatherCatV1.10B1784,2013-09-16 15:52:00,
2013-09-16 11:57:00,60.6,53.7,30.02,NW,325,0.0,0.0,78,0.00,,,0.00,WeatherCatV1.10B1784,2013-09-16 15:57:00,
2013-09-16 12:02:00,61.1,54.9,30.02,NNW,327,0.0,3.0,80,0.00,,,0.00,WeatherCatV1.10B1784,2013-09-16 16:02:00,
2013-09-16 12:07:00,61.2,54.3,30.01,NW,315,0.0,1.0,78,0.00,,,0.00,WeatherCatV1.10B1784,2013-09-16 16:07:00,
2013-09-16 12:12:00,61.7,54.1,30.01,NW,308,3.0,5.0,76,0.00,,,0.00,WeatherCatV1.10B1784,2013-09-16 16:12:00,
2013-09-16 12:17:00,62.0,54.0,30.01,NW,325,0.0,3.0,75,0.00,,,0.00,WeatherCatV1.10B1784,2013-09-16 16:17:00,
2013-09-16 12:22:00,62.6,54.9,30.01,WNW,302,0.0,3.0,76,0.00,,,0.00,WeatherCatV1.10B1784,2013-09-16 16:22:00,
2013-09-16 12:27:00,63.1,55.4,30.01,WSW,257,0.0,2.0,76,0.00,,,0.00,WeatherCatV1.10B1784,2013-09-16 16:27:00,
2013-09-16 12:32:00,63.5,54.3,30.01,WSW,242,4.0,10.0,72,0.00,,,0.00,WeatherCatV1.10B1784,2013-09-16 16:32:00,
2013-09-16 12:37:00,63.3,55.6,30.01,WNW,289,0.0,1.0,76,0.00,,,0.00,WeatherCatV1.10B1784,2013-09-16 16:37:00,
2013-09-16 12:42:00,63.3,54.9,30.01,WNW,291,0.0,2.0,74,0.00,,,0.00,WeatherCatV1.10B1784,2013-09-16 16:42:00,
2013-09-16 12:47:00,63.9,55.4,30.01,WNW,293,0.0,0.0,74,0.00,,,0.00,WeatherCatV1.10B1784,2013-09-16 16:47:00,
2013-09-16 12:52:00,64.1,55.3,30.00,WNW,300,0.0,3.0,73,0.00,,,0.00,WeatherCatV1.10B1784,2013-09-16 16:52:00,
2013-09-16 12:57:00,63.9,55.4,30.00,WNW,300,0.0,1.0,74,0.00,,,0.00,WeatherCatV1.10B1784,2013-09-16 16:57:00,
2013-09-16 13:02:00,63.7,54.1,30.00,WNW,300,0.0,3.0,71,0.00,,,0.00,WeatherCatV1.10B1784,2013-09-16 17:02:00,
2013-09-16 13:07:00,63.3,53.7,30.00,WNW,299,1.0,6.0,71,0.00,,,0.00,WeatherCatV1.10B1784,2013-09-16 17:07:00,
2013-09-16 13:12:00,62.9,54.1,30.00,NW,304,3.0,4.0,73,0.00,,,0.00,WeatherCatV1.10B1784,2013-09-16 17:12:00,
2013-09-16 13:17:00,62.9,54.1,30.00,NW,304,0.0,0.0,73,0.00,,,0.00,WeatherCatV1.10B1784,2013-09-16 17:17:00,
2013-09-16 13:22:00,63.6,53.6,30.00,NW,304,0.0,2.0,70,0.00,,,0.00,WeatherCatV1.10B1784,2013-09-16 17:22:00,
2013-09-16 13:27:00,64.7,55.8,30.00,WNW,294,5.0,5.0,73,0.00,,,0.00,WeatherCatV1.10B1784,2013-09-16 17:27:00,
2013-09-16 13:32:00,65.2,54.8,30.00,NW,305,3.0,3.0,69,0.00,,,0.00,WeatherCatV1.10B1784,2013-09-16 17:32:00,
2013-09-16 13:37:00,65.2,55.2,30.00,NW,311,3.0,3.0,70,0.00,,,0.00,WeatherCatV1.10B1784,2013-09-16 17:37:00,
2013-09-16 13:42:00,64.7,53.9,30.00,SW,227,5.0,9.0,68,0.00,,,0.00,WeatherCatV1.10B1784,2013-09-16 17:42:00,
2013-09-16 13:47:00,64.7,53.9,30.00,WSW,247,0.0,1.0,68,0.00,,,0.00,WeatherCatV1.10B1784,2013-09-16 17:47:00,
2013-09-16 13:52:00,64.4,54.4,30.00,West,271,0.0,5.0,70,0.00,,,0.00,WeatherCatV1.10B1784,2013-09-16 17:52:00,
2013-09-16 13:57:00,64.5,54.5,30.00,West,272,0.0,0.0,70,0.00,,,0.00,WeatherCatV1.10B1784,2013-09-16 17:57:00,
2013-09-16 14:02:00,64.2,53.8,30.00,WNW,288,0.0,2.0,69,0.00,,,0.00,WeatherCatV1.10B1784,2013-09-16 18:02:00,
2013-09-16 14:07:00,64.0,53.2,30.00,NW,319,0.0,7.0,68,0.00,,,0.00,WeatherCatV1.10B1784,2013-09-16 18:07:00,
2013-09-16 14:12:00,63.8,53.4,30.00,West,275,1.0,4.0,69,0.00,,,0.00,WeatherCatV1.10B1784,2013-09-16 18:12:00,
2013-09-16 14:17:00,64.1,54.5,30.00,WNW,283,0.0,1.0,71,0.00,,,0.00,WeatherCatV1.10B1784,2013-09-16 18:17:00,
2013-09-16 14:22:00,64.8,53.6,30.00,SSW,205,0.0,7.0,67,0.00,,,0.00,WeatherCatV1.10B1784,2013-09-16 18:22:00,
2013-09-16 14:27:00,64.5,54.5,30.00,NW,304,0.0,4.0,70,0.00,,,0.00,WeatherCatV1.10B1784,2013-09-16 18:27:00,
2013-09-16 14:32:00,64.1,53.7,30.00,NW,304,0.0,0.0,69,0.00,,,0.00,WeatherCatV1.10B1784,2013-09-16 18:32:00,
2013-09-16 14:37:00,63.8,54.2,30.00,WNW,301,2.0,4.0,71,0.00,,,0.00,WeatherCatV1.10B1784,2013-09-16 18:37:00,
2013-09-16 14:42:00,63.6,54.0,30.00,WNW,301,0.0,0.0,71,0.00,,,0.00,WeatherCatV1.10B1784,2013-09-16 18:42:00,
2013-09-16 14:47:00,64.1,55.3,30.00,WNW,301,1.0,1.0,73,0.00,,,0.00,WeatherCatV1.10B1784,2013-09-16 18:47:00,
2013-09-16 14:52:00,64.6,54.6,30.00,WNW,301,0.0,2.0,70,0.00,,,0.00,WeatherCatV1.10B1784,2013-09-16 18:52:00,
2013-09-16 14:57:00,65.1,54.7,30.00,WNW,298,0.0,2.0,69,0.00,,,0.00,WeatherCatV1.10B1784,2013-09-16 18:57:00,
2013-09-16 15:02:00,65.3,54.9,30.00,WNW,298,0.0,0.0,69,0.00,,,0.00,WeatherCatV1.10B1784,2013-09-16 19:02:00,
2013-09-16 15:07:00,65.2,53.5,30.00,WNW,298,0.0,0.0,66,0.00,,,0.00,WeatherCatV1.10B1784,2013-09-16 19:07:00,
2013-09-16 15:12:00,64.9,53.7,30.00,WNW,298,0.0,0.0,67,0.00,,,0.00,WeatherCatV1.10B1784,2013-09-16 19:12:00,
2013-09-16 15:17:00,64.3,54.3,30.00,WNW,298,0.0,0.0,70,0.00,,,0.00,WeatherCatV1.10B1784,2013-09-16 19:17:00,
2013-09-16 15:22:00,64.2,55.0,30.00,WNW,298,0.0,0.0,72,0.00,,,0.00,WeatherCatV1.10B1784,2013-09-16 19:22:00,
2013-09-16 15:27:00,64.0,54.0,30.00,WNW,298,0.0,0.0,70,0.00,,,0.00,WeatherCatV1.10B1784,2013-09-16 19:27:00,
2013-09-16 15:32:00,63.6,54.0,30.00,WNW,298,0.0,0.0,71,0.00,,,0.00,WeatherCatV1.10B1784,2013-09-16 19:32:00,
2013-09-16 15:37:00,62.9,53.0,30.00,WNW,298,0.0,0.0,70,0.00,,,0.00,WeatherCatV1.10B1784,2013-09-16 19:37:00,
2013-09-16 15:42:00,62.4,52.5,30.01,WNW,298,0.0,0.0,70,0.00,,,0.00,WeatherCatV1.10B1784,2013-09-16 19:42:00,
2013-09-16 15:47:00,62.2,54.2,30.01,WNW,298,0.0,1.0,75,0.00,,,0.00,WeatherCatV1.10B1784,2013-09-16 19:47:00,
2013-09-16 15:52:00,63.0,53.4,30.01,West,273,0.0,4.0,71,0.00,,,0.00,WeatherCatV1.10B1784,2013-09-16 19:52:00,
2013-09-16 15:57:00,64.6,54.2,30.01,West,267,0.0,0.0,69,0.00,,,0.00,WeatherCatV1.10B1784,2013-09-16 19:57:00,
2013-09-16 16:02:00,65.7,55.6,30.01,West,267,0.0,1.0,70,0.00,,,0.00,WeatherCatV1.10B1784,2013-09-16 20:02:00,
2013-09-16 16:07:00,65.8,54.9,30.01,West,267,0.0,1.0,68,0.00,,,0.00,WeatherCatV1.10B1784,2013-09-16 20:07:00,
2013-09-16 16:12:00,65.3,54.9,30.01,West,267,0.0,0.0,69,0.00,,,0.00,WeatherCatV1.10B1784,2013-09-16 20:12:00,
2013-09-16 16:17:00,65.4,55.7,30.01,West,267,0.0,0.0,71,0.00,,,0.00,WeatherCatV1.10B1784,2013-09-16 20:17:00,
2013-09-16 16:22:00,65.6,55.5,30.01,West,267,1.0,1.0,70,0.00,,,0.00,WeatherCatV1.10B1784,2013-09-16 20:22:00,
2013-09-16 16:27:00,65.8,54.9,30.01,West,267,0.0,1.0,68,0.00,,,0.00,WeatherCatV1.10B1784,2013-09-16 20:27:00,
2013-09-16 16:32:00,65.9,54.2,30.01,West,267,0.0,1.0,66,0.00,,,0.00,WeatherCatV1.10B1784,2013-09-16 20:32:00,
2013-09-16 16:37:00,65.3,54.1,30.01,West,267,0.0,0.0,67,0.00,,,0.00,WeatherCatV1.10B1784,2013-09-16 20:37:00,
2013-09-16 16:42:00,64.1,54.1,30.01,WSW,248,4.0,4.0,70,0.00,,,0.00,WeatherCatV1.10B1784,2013-09-16 20:42:00,
2013-09-16 16:47:00,63.1,53.2,30.01,WNW,288,0.0,1.0,70,0.00,,,0.00,WeatherCatV1.10B1784,2013-09-16 20:47:00,
2013-09-16 16:52:00,62.7,53.2,30.02,WNW,288,0.0,1.0,71,0.00,,,0.00,WeatherCatV1.10B1784,2013-09-16 20:52:00,
2013-09-16 16:57:00,62.8,53.6,30.01,WNW,288,0.0,0.0,72,0.00,,,0.00,WeatherCatV1.10B1784,2013-09-16 20:57:00,
2013-09-16 17:02:00,62.8,53.6,30.02,WNW,288,0.0,0.0,72,0.00,,,0.00,WeatherCatV1.10B1784,2013-09-16 21:02:00,
2013-09-16 17:07:00,62.6,53.4,30.02,WNW,288,0.0,0.0,72,0.00,,,0.00,WeatherCatV1.10B1784,2013-09-16 21:07:00,
2013-09-16 17:12:00,62.5,52.6,30.02,WNW,288,0.0,0.0,70,0.00,,,0.00,WeatherCatV1.10B1784,2013-09-16 21:12:00,
2013-09-16 17:17:00,62.0,52.9,30.02,WNW,288,0.0,1.0,72,0.00,,,0.00,WeatherCatV1.10B1784,2013-09-16 21:17:00,
2013-09-16 17:22:00,61.3,52.6,30.02,WNW,288,0.0,2.0,73,0.00,,,0.00,WeatherCatV1.10B1784,2013-09-16 21:22:00,
2013-09-16 17:27:00,61.0,51.9,30.02,WNW,288,0.0,0.0,72,0.00,,,0.00,WeatherCatV1.10B1784,2013-09-16 21:27:00,
2013-09-16 17:32:00,60.8,51.3,30.03,WNW,288,0.0,1.0,71,0.00,,,0.00,WeatherCatV1.10B1784,2013-09-16 21:32:00,
2013-09-16 17:37:00,60.9,51.8,30.03,WNW,288,0.0,1.0,72,0.00,,,0.00,WeatherCatV1.10B1784,2013-09-16 21:37:00,
2013-09-16 17:42:00,61.1,51.6,30.03,WNW,288,0.0,0.0,71,0.00,,,0.00,WeatherCatV1.10B1784,2013-09-16 21:42:00,
2013-09-16 17:47:00,61.1,53.1,30.03,WNW,288,0.0,0.0,75,0.00,,,0.00,WeatherCatV1.10B1784,2013-09-16 21:47:00,
2013-09-16 17:52:00,60.9,52.9,30.04,WNW,288,0.0,2.0,75,0.00,,,0.00,WeatherCatV1.10B1784,2013-09-16 21:52:00,
2013-09-16 17:57:00,60.6,53.3,30.04,WNW,288,0.0,0.0,77,0.00,,,0.00,WeatherCatV1.10B1784,2013-09-16 21:57:00,
2013-09-16 18:02:00,60.2,52.2,30.04,WNW,288,0.0,2.0,75,0.00,,,0.00,WeatherCatV1.10B1784,2013-09-16 22:02:00,
2013-09-16 18:07:00,59.9,53.4,30.04,WNW,288,0.0,0.0,79,0.00,,,0.00,WeatherCatV1.10B1784,2013-09-16 22:07:00,
2013-09-16 18:12:00,59.5,51.2,30.05,WNW,288,0.0,3.0,74,0.00,,,0.00,WeatherCatV1.10B1784,2013-09-16 22:12:00,
2013-09-16 18:17:00,59.4,51.5,30.05,WNW,288,0.0,1.0,75,0.00,,,0.00,WeatherCatV1.10B1784,2013-09-16 22:17:00,
2013-09-16 18:22:00,59.1,51.9,30.05,WNW,288,0.0,0.0,77,0.00,,,0.00,WeatherCatV1.10B1784,2013-09-16 22:22:00,
2013-09-16 18:27:00,58.8,52.0,30.05,WNW,288,0.0,0.0,78,0.00,,,0.00,WeatherCatV1.10B1784,2013-09-16 22:27:00,
2013-09-16 18:32:00,58.4,51.9,30.06,WNW,288,0.0,0.0,79,0.00,,,0.00,WeatherCatV1.10B1784,2013-09-16 22:32:00,
2013-09-16 18:37:00,57.8,51.3,30.06,WNW,288,0.0,0.0,79,0.00,,,0.00,WeatherCatV1.10B1784,2013-09-16 22:37:00,
2013-09-16 18:42:00,57.4,51.3,30.06,WNW,288,0.0,0.0,80,0.00,,,0.00,WeatherCatV1.10B1784,2013-09-16 22:42:00,
2013-09-16 18:47:00,56.9,50.5,30.06,WNW,288,0.0,0.0,79,0.00,,,0.00,WeatherCatV1.10B1784,2013-09-16 22:47:00,
2013-09-16 18:52:00,56.7,50.9,30.07,WNW,288,0.0,0.0,81,0.00,,,0.00,WeatherCatV1.10B1784,2013-09-16 22:52:00,
2013-09-16 18:57:00,56.3,50.5,30.07,WNW,288,0.0,0.0,81,0.00,,,0.00,WeatherCatV1.10B1784,2013-09-16 22:57:00,
2013-09-16 19:02:00,55.9,50.5,30.07,WNW,288,0.0,0.0,82,0.00,,,0.00,WeatherCatV1.10B1784,2013-09-16 23:02:00,
2013-09-16 19:07:00,55.5,49.1,30.08,WNW,288,0.0,0.0,79,0.00,,,0.00,WeatherCatV1.10B1784,2013-09-16 23:07:00,
2013-09-16 19:12:00,55.2,46.7,30.08,WNW,288,0.0,1.0,73,0.00,,,0.00,WeatherCatV1.10B1784,2013-09-16 23:12:00,
2013-09-16 19:17:00,55.0,47.2,30.08,WNW,288,0.0,0.0,75,0.00,,,0.00,WeatherCatV1.10B1784,2013-09-16 23:17:00,
2013-09-16 19:22:00,54.6,47.2,30.09,WNW,288,0.0,0.0,76,0.00,,,0.00,WeatherCatV1.10B1784,2013-09-16 23:22:00,
2013-09-16 19:27:00,54.1,46.4,30.09,WNW,288,0.0,0.0,75,0.00,,,0.00,WeatherCatV1.10B1784,2013-09-16 23:27:00,
2013-09-16 19:32:00,53.8,45.7,30.09,WNW,288,0.0,1.0,74,0.00,,,0.00,WeatherCatV1.10B1784,2013-09-16 23:32:00,
2013-09-16 19:37:00,53.5,45.8,30.09,WNW,288,0.0,0.0,75,0.00,,,0.00,WeatherCatV1.10B1784,2013-09-16 23:37:00,
2013-09-16 19:42:00,53.2,45.8,30.10,WNW,288,0.0,0.0,76,0.00,,,0.00,WeatherCatV1.10B1784,2013-09-16 23:42:00,
2013-09-16 19:47:00,53.0,44.9,30.10,WNW,288,0.0,0.0,74,0.00,,,0.00,WeatherCatV1.10B1784,2013-09-16 23:47:00,
2013-09-16 19:52:00,52.9,44.8,30.11,WNW,288,0.0,0.0,74,0.00,,,0.00,WeatherCatV1.10B1784,2013-09-16 23:52:00,
2013-09-16 19:57:00,52.7,44.6,30.11,WNW,288,0.0,0.0,74,0.00,,,0.00,WeatherCatV1.10B1784,2013-09-16 23:57:00,
2013-09-16 20:02:00,52.5,44.1,30.11,WNW,288,1.0,1.0,73,0.00,,,0.00,WeatherCatV1.10B1784,2013-09-17 00:02:00,
2013-09-16 20:07:00,52.2,43.8,30.12,WNW,288,0.0,1.0,73,0.00,,,0.00,WeatherCatV1.10B1784,2013-09-17 00:07:00,
2013-09-16 20:12:00,52.0,44.3,30.12,WNW,288,0.0,0.0,75,0.00,,,0.00,WeatherCatV1.10B1784,2013-09-17 00:12:00,
2013-09-16 20:17:00,51.7,44.4,30.12,WNW,288,0.0,1.0,76,0.00,,,0.00,WeatherCatV1.10B1784,2013-09-17 00:17:00,
2013-09-16 20:22:00,51.4,44.1,30.13,WNW,288,0.0,0.0,76,0.00,,,0.00,WeatherCatV1.10B1784,2013-09-17 00:22:00,
2013-09-16 20:27:00,51.2,43.9,30.13,WNW,288,0.0,3.0,76,0.00,,,0.00,WeatherCatV1.10B1784,2013-09-17 00:27:00,
2013-09-16 20:32:00,51.2,43.2,30.13,WNW,291,0.0,0.0,74,0.00,,,0.00,WeatherCatV1.10B1784,2013-09-17 00:32:00,
2013-09-16 20:37:00,51.0,43.7,30.13,WNW,291,0.0,0.0,76,0.00,,,0.00,WeatherCatV1.10B1784,2013-09-17 00:37:00,
2013-09-16 20:42:00,50.8,43.5,30.14,WNW,291,0.0,0.0,76,0.00,,,0.00,WeatherCatV1.10B1784,2013-09-17 00:42:00,
2013-09-16 20:47:00,50.6,43.3,30.14,WNW,291,0.0,0.0,76,0.00,,,0.00,WeatherCatV1.10B1784,2013-09-17 00:47:00,
2013-09-16 20:52:00,50.4,43.5,30.14,WNW,291,0.0,0.0,77,0.00,,,0.00,WeatherCatV1.10B1784,2013-09-17 00:52:00,
2013-09-16 20:57:00,50.2,43.3,30.14,WNW,291,0.0,0.0,77,0.00,,,0.00,WeatherCatV1.10B1784,2013-09-17 00:57:00,
2013-09-16 21:02:00,50.0,42.7,30.15,WNW,291,0.0,0.0,76,0.00,,,0.00,WeatherCatV1.10B1784,2013-09-17 01:02:00,
2013-09-16 21:07:00,49.9,43.0,30.15,WNW,291,0.0,3.0,77,0.00,,,0.00,WeatherCatV1.10B1784,2013-09-17 01:07:00,
2013-09-16 21:12:00,49.8,42.5,30.15,WNW,291,0.0,1.0,76,0.00,,,0.00,WeatherCatV1.10B1784,2013-09-17 01:12:00,
2013-09-16 21:17:00,49.7,42.4,30.15,West,271,0.0,1.0,76,0.00,,,0.00,WeatherCatV1.10B1784,2013-09-17 01:17:00,
2013-09-16 21:22:00,49.5,42.3,30.16,West,271,0.0,0.0,76,0.00,,,0.00,WeatherCatV1.10B1784,2013-09-17 01:22:00,
2013-09-16 21:27:00,49.2,42.0,30.16,West,271,0.0,0.0,76,0.00,,,0.00,WeatherCatV1.10B1784,2013-09-17 01:27:00,
2013-09-16 21:32:00,49.0,41.8,30.16,West,271,0.0,2.0,76,0.00,,,0.00,WeatherCatV1.10B1784,2013-09-17 01:32:00,
2013-09-16 21:37:00,48.9,41.3,30.17,West,267,0.0,4.0,75,0.00,,,0.00,WeatherCatV1.10B1784,2013-09-17 01:37:00,
2013-09-16 21:42:00,48.7,41.1,30.17,West,267,0.0,0.0,75,0.00,,,0.00,WeatherCatV1.10B1784,2013-09-17 01:42:00,
2013-09-16 21:47:00,48.5,40.6,30.17,West,267,0.0,1.0,74,0.00,,,0.00,WeatherCatV1.10B1784,2013-09-17 01:47:00,
2013-09-16 21:52:00,48.3,40.7,30.17,West,281,0.0,3.0,75,0.00,,,0.00,WeatherCatV1.10B1784,2013-09-17 01:52:00,
2013-09-16 21:57:00,48.2,40.7,30.17,West,281,0.0,0.0,75,0.00,,,0.00,WeatherCatV1.10B1784,2013-09-17 01:57:00,
2013-09-16 22:02:00,48.0,40.8,30.18,West,281,0.0,0.0,76,0.00,,,0.00,WeatherCatV1.10B1784,2013-09-17 02:02:00,
2013-09-16 22:07:00,47.8,41.3,30.18,West,281,0.0,0.0,78,0.00,,,0.00,WeatherCatV1.10B1784,2013-09-17 02:07:00,
2013-09-16 22:12:00,47.6,41.1,30.18,West,281,0.0,0.0,78,0.00,,,0.00,WeatherCatV1.10B1784,2013-09-17 02:12:00,
2013-09-16 22:17:00,47.4,40.9,30.19,West,281,0.0,0.0,78,0.00,,,0.00,WeatherCatV1.10B1784,2013-09-17 02:17:00,
2013-09-16 22:22:00,47.1,40.6,30.19,West,281,0.0,4.0,78,0.00,,,0.00,WeatherCatV1.10B1784,2013-09-17 02:22:00,
2013-09-16 22:27:00,47.0,40.5,30.19,West,281,0.0,0.0,78,0.00,,,0.00,WeatherCatV1.10B1784,2013-09-17 02:27:00,
2013-09-16 22:32:00,46.9,40.1,30.19,West,281,0.0,0.0,77,0.00,,,0.00,WeatherCatV1.10B1784,2013-09-17 02:32:00,
2013-09-16 22:37:00,46.7,40.2,30.20,West,281,0.0,0.0,78,0.00,,,0.00,WeatherCatV1.10B1784,2013-09-17 02:37:00,
2013-09-16 22:42:00,46.6,40.4,30.20,West,281,0.0,2.0,79,0.00,,,0.00,WeatherCatV1.10B1784,2013-09-17 02:42:00,
2013-09-16 22:47:00,46.5,40.0,30.20,WNW,283,0.0,0.0,78,0.00,,,0.00,WeatherCatV1.10B1784,2013-09-17 02:47:00,
2013-09-16 22:52:00,46.4,39.9,30.20,WNW,283,0.0,0.0,78,0.00,,,0.00,WeatherCatV1.10B1784,2013-09-17 02:52:00,
2013-09-16 22:57:00,46.2,40.1,30.20,WNW,283,0.0,0.0,79,0.00,,,0.00,WeatherCatV1.10B1784,2013-09-17 02:57:00,
2013-09-16 23:02:00,46.1,39.6,30.20,WNW,283,1.0,1.0,78,0.00,,,0.00,WeatherCatV1.10B1784,2013-09-17 03:02:00,
2013-09-16 23:07:00,46.0,39.5,30.21,WNW,282,0.0,0.0,78,0.00,,,0.00,WeatherCatV1.10B1784,2013-09-17 03:07:00,
2013-09-16 23:12:00,45.9,39.4,30.21,WNW,282,0.0,0.0,78,0.00,,,0.00,WeatherCatV1.10B1784,2013-09-17 03:12:00,
2013-09-16 23:17:00,45.7,38.9,30.21,WNW,282,0.0,0.0,77,0.00,,,0.00,WeatherCatV1.10B1784,2013-09-17 03:17:00,
2013-09-16 23:22:00,45.6,39.1,30.21,WNW,282,0.0,0.0,78,0.00,,,0.00,WeatherCatV1.10B1784,2013-09-17 03:22:00,
2013-09-16 23:27:00,45.5,39.0,30.22,WNW,282,0.0,0.0,78,0.00,,,0.00,WeatherCatV1.10B1784,2013-09-17 03:27:00,
2013-09-16 23:32:00,45.3,39.2,30.22,WNW,282,0.0,0.0,79,0.00,,,0.00,WeatherCatV1.10B1784,2013-09-17 03:32:00,
2013-09-16 23:37:00,45.1,38.7,30.22,WNW,282,0.0,0.0,78,0.00,,,0.00,WeatherCatV1.10B1784,2013-09-17 03:37:00,
2013-09-16 23:42:00,45.0,38.6,30.22,WNW,282,0.0,0.0,78,0.00,,,0.00,WeatherCatV1.10B1784,2013-09-17 03:42:00,
2013-09-16 23:47:00,44.8,38.4,30.22,WNW,282,0.0,0.0,78,0.00,,,0.00,WeatherCatV1.10B1784,2013-09-17 03:47:00,
2013-09-16 23:52:00,44.7,38.6,30.22,WNW,282,0.0,0.0,79,0.00,,,0.00,WeatherCatV1.10B1784,2013-09-17 03:52:00,
2013-09-16 23:57:00,44.5,38.4,30.22,WNW,282,0.0,0.0,79,0.00,,,0.00,WeatherCatV1.10B1784,2013-09-17 03:57:00,